Theta_e
293 288 286 291 291 289 286 285 285 289 292 290 290 291 294 298 294 292 295 297 296 294 299 299 297 297 297 297 295 294 293 292 293 291 290 290 290 289 288 288 289 288 287 287
289 286 292 292 291 291 289 287 287 291 293 289 290 290 293 295 296 297 297 296 297 299 300 296 294 294 296 295 294 293 293 292 293 293 293 291 291 287 289 288 288 288 287 286
289 291 294 292 289 289 288 287 288 288 289 288 286 287 288 292 295 297 297 298 299 299 300 297 293 293 295 294 292 292 293 292 293 293 291 286 286 285 285 286 286 287 287 286
289 294 292 290 289 291 287 291 290 288 284 283 286 282 285 289 291 293 295 297 298 299 299 298 292 291 292 293 292 292 292 292 292 291 290 289 289 288 289 288 286 285 286 285
288 288 288 288 291 291 290 289 288 285 283 282 282 281 284 289 288 291 295 296 298 299 294 295 292 294 294 292 291 291 291 291 291 290 290 289 288 289 284 284 284 285 284 285
289 290 290 290 290 290 289 287 286 283 282 279 284 283 283 285 289 290 294 296 297 298 299 293 293 292 290 288 290 290 289 290 290 289 289 289 289 285 283 284 285 284 284 284
284 286 288 291 287 287 287 285 278 276 275 278 284 281 288 288 291 292 293 294 295 297 292 291 290 290 288 288 288 289 289 288 289 288 289 289 288 286 285 284 285 284 283 282
281 282 287 289 289 286 285 287 279 274 278 282 281 279 286 291 293 293 293 295 293 292 291 292 290 290 289 289 288 289 288 288 288 288 289 289 288 287 286 285 285 285 284 284
281 283 287 288 288 290 283 282 289 280 269 273 283 285 289 288 290 291 291 290 290 290 291 291 289 289 289 288 288 289 288 289 288 288 288 287 288 286 286 284 284 284 284 283
288 283 288 286 286 285 286 287 280 280 272 270 281 279 285 287 291 289 289 289 288 289 290 290 289 288 288 288 289 288 289 289 288 288 288 287 287 286 286 282 282 282 282 281
290 287 286 284 283 286 283 283 283 283 282 280 278 282 288 286 287 287 288 289 289 289 290 291 291 290 289 288 288 288 288 287 287 286 287 286 285 285 285 282 282 281 281 280
292 288 283 286 288 286 286 286 287 282 280 280 283 283 295 294 294 292 293 291 289 290 291 291 292 291 289 289 287 288 288 288 288 288 286 286 285 284 284 282 282 280 280 280
292 287 283 283 286 288 286 288 288 287 285 282 280 282 295 295 294 295 291 290 292 292 291 292 292 292 293 290 289 288 288 288 288 288 285 285 283 283 283 283 281 280 280 279
297 290 286 282 285 288 284 285 286 286 282 282 283 284 289 292 293 295 296 296 296 296 296 297 295 293 292 291 290 290 289 288 287 286 285 284 283 283 283 282 280 280 280 278
293 285 287 288 290 290 289 288 289 287 287 283 285 286 290 293 294 296 297 296 296 295 294 294 294 296 295 292 290 290 290 288 287 285 285 285 284 283 283 281 280 280 278 277
289 284 286 285 288 287 285 287 288 288 289 288 289 288 295 296 297 296 297 297 297 297 296 294 292 292 291 291 291 288 289 287 285 286 285 285 283 282 281 280 279 278 277 276
284 283 282 279 285 284 281 285 286 288 289 289 284 290 291 290 291 292 290 289 289 289 289 289 289 290 290 291 287 287 287 286 283 285 285 283 282 280 279 278 277 276 276 275
281 281 282 278 280 272 284 291 291 288 289 288 281 282 282 281 283 287 285 283 285 287 288 288 288 288 289 290 289 287 285 282 283 284 284 282 280 279 277 276 276 276 275 275
285 282 278 276 277 281 284 280 276 281 281 279 280 279 280 280 280 285 283 284 285 286 286 286 287 287 287 287 285 282 281 280 280 281 282 280 279 278 276 275 276 276 275 275
280 283 280 277 273 272 274 278 279 280 275 279 280 278 279 278 271 275 281 284 284 285 285 285 286 286 286 286 283 280 279 277 278 278 278 277 278 278 276 277 276 276 275 275
266 268 271 274 272 275 277 279 278 270 270 280 281 279 278 275 277 280 282 282 283 283 284 285 285 283 284 284 280 280 278 277 277 275 275 275 277 278 277 277 276 275 274 273
269 269 269 264 264 268 278 276 270 274 282 281 279 279 278 279 279 280 280 281 281 282 283 284 283 284 285 285 280 281 279 279 275 275 273 274 276 276 275 275 274 273 273 271
267 272 270 271 269 277 279 278 280 283 279 278 277 278 277 275 276 277 277 278 279 280 280 282 282 282 283 285 280 281 282 276 275 275 274 273 274 274 273 272 270 271 271 271
273 276 269 271 274 275 277 279 280 279 276 277 276 274 274 273 275 275 275 275 275 275 276 278 278 279 280 283 284 282 283 277 275 275 275 274 273 272 272 272 272 272 271 271
272 273 271 270 275 276 276 277 276 277 276 275 275 274 273 273 272 272 272 272 273 274 274 274 274 275 275 277 280 284 285 277 275 276 274 273 272 272 272 272 272 272 272 273
276 274 271 270 276 275 276 277 276 273 272 272 272 272 272 271 270 271 270 271 271 270 270 269 269 270 270 272 274 276 282 278 277 274 272 271 271 271 271 271 270 276 275 276
Wind_Speed
3 5 11 24 18 4 3 7 7 10 10 5 13 16 19 23 9 12 17 21 16 16 23 12 11 13 14 14 16 19 20 18 15 10 10 8 11 7 6 6 9 9 7 7
2 12 21 6 6 11 14 16 20 15 17 8 15 23 17 15 21 20 20 20 21 20 20 10 9 10 16 19 20 19 21 20 17 13 11 7 9 4 7 7 8 10 10 9
18 10 13 12 7 8 16 16 18 18 6 6 10 17 12 14 18 20 19 20 19 21 23 12 10 12 12 16 20 21 22 21 19 15 9 4 5 3 3 7 7 8 10 9
10 11 13 8 9 15 21 13 15 10 3 13 2 23 7 9 14 12 17 18 20 21 19 17 9 9 14 18 15 17 18 19 17 17 15 16 12 12 9 9 5 6 10 10
10 4 7 13 22 10 18 4 6 3 4 6 5 8 4 9 8 13 15 15 19 18 12 17 12 15 13 13 16 16 17 18 16 17 17 14 12 9 4 4 9 9 7 8
11 1 5 9 5 10 3 3 5 5 1 13 13 10 5 8 10 7 10 16 16 19 18 8 7 6 7 7 11 14 17 17 16 17 16 17 19 10 7 8 10 9 7 7
3 7 5 6 4 2 4 6 4 5 1 15 9 8 19 5 9 13 14 13 14 15 8 8 10 10 10 14 13 13 16 17 16 18 18 18 16 14 15 13 11 11 9 8
3 15 11 6 12 11 11 12 9 9 15 23 6 15 12 11 11 11 12 13 10 11 7 10 10 11 13 14 14 15 15 15 16 18 20 16 16 11 11 13 10 10 10 11
5 16 2 4 2 9 3 7 16 2 1 1 11 16 9 6 8 9 11 9 15 10 9 9 7 9 10 12 15 17 16 16 17 18 14 15 14 15 14 11 10 9 8 7
4 13 5 3 2 1 8 2 2 1 3 9 16 6 17 10 15 7 9 11 12 8 8 6 5 6 6 7 8 11 15 20 16 14 14 13 15 14 12 8 12 11 9 10
4 3 20 0 8 14 0 5 5 3 6 15 18 19 7 5 5 5 6 6 9 8 9 7 7 8 7 6 9 12 13 13 12 14 15 15 14 14 13 12 12 13 12 13
6 7 10 18 8 4 4 13 13 13 14 10 16 17 28 19 20 14 19 9 6 8 9 8 8 8 8 9 10 14 12 14 17 15 14 17 14 14 15 14 14 13 14 13
8 6 8 6 7 9 12 18 15 14 13 23 23 20 23 25 25 23 11 10 11 10 10 9 7 8 10 12 12 13 14 18 16 13 15 14 15 15 18 17 15 16 15 15
7 12 18 21 20 6 7 9 9 16 17 22 22 23 24 29 29 35 22 18 16 15 14 13 9 9 9 11 14 15 16 16 12 13 15 17 17 19 17 15 15 16 16 16
8 16 17 23 28 25 30 29 30 29 29 26 25 26 26 34 36 31 19 16 13 13 8 8 12 14 12 10 11 10 13 12 14 16 16 19 18 15 14 14 15 15 16 15
8 9 17 25 26 27 29 32 34 33 32 31 31 32 32 31 31 25 24 23 16 11 11 15 14 14 14 12 12 10 12 12 13 15 19 15 13 13 15 15 15 15 14 14
9 10 15 19 14 20 22 30 30 33 29 29 32 31 22 20 20 19 17 19 16 16 14 14 14 15 16 17 11 11 11 8 11 15 14 13 14 15 15 14 15 16 17 15
22 23 16 21 22 32 21 11 21 28 32 18 15 17 15 18 21 2 15 20 17 16 15 14 12 14 17 15 16 13 11 7 11 12 11 12 14 14 14 15 16 15 14 16
20 18 12 16 21 23 22 10 11 15 1 16 9 17 16 18 21 3 21 18 16 19 18 13 9 11 13 14 12 10 9 6 5 10 12 12 13 12 14 15 16 14 14 14
9 7 13 17 19 22 8 11 23 14 6 13 11 16 13 17 16 16 24 16 16 17 17 16 16 12 13 15 11 8 7 5 6 1 2 5 9 12 13 13 12 10 10 11
4 6 10 14 16 10 10 13 13 5 9 14 6 6 12 12 10 22 20 17 15 17 20 18 15 15 16 13 9 11 7 8 4 2 6 8 9 11 11 11 10 12 12 10
4 7 8 4 6 16 19 5 1 7 5 9 9 10 11 12 15 17 19 18 17 18 17 16 16 19 17 13 8 14 11 8 3 5 5 5 7 8 8 11 9 10 12 12
6 6 3 3 6 21 13 5 9 3 3 6 10 9 10 13 15 16 17 19 18 18 17 16 16 19 18 16 7 11 14 4 3 4 7 11 9 9 11 12 11 9 10 10
4 7 4 4 7 12 13 10 2 2 4 2 4 8 9 13 16 17 16 17 17 17 17 16 18 20 21 16 17 11 13 7 7 9 9 8 11 13 14 11 12 12 12 10
9 1 7 7 15 15 11 6 1 5 2 8 10 11 12 12 17 16 17 18 17 18 16 16 17 18 22 21 20 17 15 8 11 11 9 9 8 11 10 12 14 13 14 16
12 17 12 14 17 11 15 7 0 2 5 8 11 13 15 13 17 17 16 16 15 18 17 17 20 20 22 19 20 19 18 10 13 11 9 9 9 10 10 9 7 19 17 23
Wind_Direction
207 127 205 228 209 218 197 218 230 254 264 217 233 244 252 269 254 252 253 257 253 245 254 244 207 197 193 192 184 183 176 177 168 170 171 178 193 189 190 182 181 174 175 171
157 210 222 242 194 224 242 256 260 267 265 202 253 257 258 260 265 256 254 257 251 253 259 240 210 186 190 191 189 182 183 175 180 179 180 181 177 185 187 185 184 181 180 174
221 221 218 221 226 229 230 235 250 251 300 240 283 268 251 249 256 264 254 244 255 250 253 251 212 200 194 192 188 184 183 179 180 175 158 96 93 73 156 193 188 192 180 174
244 233 214 198 221 210 260 227 254 260 280 270 93 291 212 234 245 247 253 259 248 252 256 256 206 197 194 200 187 183 179 177 180 171 175 181 189 191 199 192 176 179 182 180
240 192 194 216 232 188 259 235 246 235 233 326 204 257 171 202 241 248 254 240 257 260 230 240 207 209 204 175 180 178 175 179 178 180 185 186 196 198 147 147 160 180 183 184
242 241 192 218 187 190 128 62 24 49 39 267 212 209 66 167 205 247 250 255 252 262 261 218 220 159 165 160 171 175 177 182 180 182 186 192 199 179 157 172 180 186 183 183
305 218 212 166 228 142 139 110 297 315 54 253 195 222 259 253 220 212 237 247 247 252 236 195 182 183 167 172 173 176 181 189 183 183 192 196 198 189 190 182 186 180 183 188
271 291 171 177 197 197 208 198 183 206 261 271 143 250 268 225 237 228 236 260 294 283 225 215 197 179 185 188 177 177 188 192 190 191 202 198 197 192 198 189 188 193 196 190
206 265 123 191 169 152 168 192 231 298 70 37 257 275 284 230 280 292 293 295 266 255 257 244 203 192 183 186 189 189 185 195 203 204 197 200 196 197 198 191 184 183 179 173
298 283 203 94 37 34 174 177 70 207 194 258 273 239 261 289 275 287 308 307 300 290 259 251 237 222 197 197 203 199 199 203 200 196 200 200 201 197 194 172 186 181 169 163
64 37 278 10 194 242 247 234 220 219 206 244 257 271 227 197 173 288 295 328 310 305 284 239 229 226 220 189 194 205 213 206 197 194 198 195 197 193 190 187 184 177 166 170
207 169 223 256 267 244 222 260 242 244 250 233 255 252 281 277 283 276 284 296 288 262 260 241 235 234 212 215 207 213 211 209 213 205 197 202 194 186 190 188 186 171 174 174
181 212 265 275 284 250 226 236 239 256 264 248 252 252 253 276 275 274 261 256 274 269 263 251 235 229 230 223 215 211 212 218 214 205 200 199 197 192 200 195 182 174 174 176
218 245 242 253 253 265 241 204 215 242 255 260 252 262 268 269 272 272 270 278 269 265 270 289 296 255 231 224 212 212 216 217 203 201 204 204 201 200 199 192 182 179 177 172
210 245 242 247 259 262 262 260 260 252 236 239 249 255 254 261 267 271 282 270 280 285 294 281 272 270 263 247 236 235 233 214 196 201 207 213 207 198 193 186 181 179 176 174
327 297 287 272 254 246 247 253 256 257 253 256 260 259 259 261 267 282 280 286 294 292 349 350 327 290 274 263 253 235 232 219 196 208 215 208 197 188 188 182 180 176 174 169
259 275 282 279 298 302 277 248 253 257 265 264 263 267 320 315 312 326 17 35 9 359 354 348 347 343 329 316 300 273 250 222 197 210 213 196 186 185 185 177 173 177 177 167
261 268 265 276 281 268 275 219 242 254 251 288 24 11 17 354 329 287 34 10 350 333 327 324 323 328 322 323 314 302 284 216 206 213 204 190 183 181 174 173 177 177 174 175
224 247 265 255 258 282 274 25 354 312 15 28 22 19 353 355 336 255 0 338 323 317 315 309 302 308 307 305 303 304 288 264 196 203 197 184 181 175 173 181 182 176 174 177
303 262 269 282 283 286 20 354 335 307 193 34 352 350 347 346 343 314 320 327 319 315 318 316 320 315 310 310 309 314 296 270 239 223 174 162 171 177 182 176 174 174 178 180
344 320 271 273 266 255 28 341 340 359 300 356 1 337 338 333 306 305 316 315 313 313 314 317 322 320 315 309 312 308 303 264 259 171 149 159 167 170 172 166 166 165 164 162
273 304 299 310 259 255 2 328 88 245 313 330 331 322 318 305 304 303 300 300 315 308 307 315 311 310 309 311 313 305 296 296 262 158 155 161 163 148 145 157 155 165 159 161
272 202 220 192 266 300 313 272 292 274 284 297 316 329 312 304 304 303 309 315 315 309 308 310 308 306 306 305 248 279 287 249 215 219 210 162 162 154 150 153 154 160 173 174
246 249 228 320 257 261 286 285 121 331 301 328 275 291 302 304 310 309 311 306 307 308 307 312 311 304 300 302 300 269 278 217 217 220 208 202 183 173 165 164 169 170 176 186
224 350 239 251 279 279 263 272 119 299 317 313 307 303 302 311 301 305 307 307 304 305 308 309 302 299 296 300 298 292 286 210 220 223 218 205 199 194 194 188 179 185 195 191
234 248 253 258 265 280 276 291 114 198 306 301 291 297 297 300 296 304 293 290 294 296 301 303 299 293 287 298 302 300 314 236 229 223 210 205 206 196 182 187 194 199 199 201